Home   Weather   Dachau   Past weeks
Flag for Germany

Past Weather in Dachau, Bavaria, Germany — Yesterday and Last 2 Weeks

Now
41 °F

Passing clouds.


Feels Like: 32 °F
Forecast: 46 / 35 °F
Wind: 21 mph from Southwest

Location: Oberpfaffenhofen

Current Time: Dec 13, 2019 at 2:04:25 pm

Latest Report: Dec 13, 2019 at 1:20 pm


Visibility: N/A

Pressure: 29.03 "Hg (27.29 "Hg at 502m altitude)

Humidity: 76%

Dew Point: 34 °F

Location of DachauLocation

Past Weather in Dachau — Graph

°F

Dachau Temperature Yesterday

Maximum temperature yesterday: 37 °F (at 12:20 am)
Minimum temperature yesterday: 27 °F (at 11:20 pm)
Average temperature yesterday: 33 °F

High & Low Weather Summary for the Past Weeks

 TemperatureHumidityPressure
High52 °F (Dec 8, 7:50 pm)100% (Nov 29, 10:50 pm)30.36 "Hg (Nov 29, 10:50 pm)
Low18 °F (Dec 6, 7:20 am)44% (Dec 8, 7:50 pm)28.94 "Hg (Dec 13, 9:20 am)
Average35 °F84%29.97 "Hg
* Reported Nov 28 12:20 pm — Dec 13 12:50 pm, Dachau. Weather by CustomWeather, © 2019

Note: Actual official high and low records may vary slightly from our data, if they occured in-between our weather recording intervals... More about our weather records

Dachau Weather History for the Previous 24 Hours

Scroll right to see more
 ConditionsComfort  
Time TempWeatherWind HumidityBarometerVisibility
12:50 pm
Fri, Dec 13
39 °FBroken clouds.23 mph81%29.00 "HgN/A
12:20 pm36 °FOvercast.13 mph93%29.00 "HgN/A
11:50 am34 °FLight rain. Mostly cloudy.9 mph87%29.00 "Hg4 mi
11:20 am36 °FLight snow. Mostly cloudy.13 mph75%29.00 "Hg4 mi
10:20 am37 °FLight rain. Broken clouds.12 mph65%28.94 "HgN/A
9:50 am34 °FSunny.7 mph75%28.94 "Hg10 mi
9:20 am32 °FScattered clouds.5 mph80%28.94 "HgN/A
8:50 am30 °FPartly sunny.2 mph86%28.97 "HgN/A
8:20 am28 °FPartly sunny.2 mph93%28.97 "HgN/A
7:50 am27 °FPassing clouds.3 mph100%29.00 "HgN/A
7:20 am28 °FPassing clouds.3 mph93%29.03 "HgN/A
6:50 am28 °FOvercast.2 mph93%29.06 "HgN/A
6:20 am28 °FOvercast.6 mph93%29.09 "HgN/A
5:50 am27 °FOvercast.2 mph93%29.09 "HgN/A
5:20 am27 °FOvercast.3 mph93%29.09 "HgN/A
4:50 am27 °FOvercast.2 mph93%29.12 "HgN/A
4:20 am27 °FOvercast.2 mph86%29.15 "HgN/A
3:50 am28 °FMostly cloudy.2 mph86%29.15 "HgN/A
3:20 am27 °FMostly cloudy.2 mph86%29.18 "HgN/A
2:50 am28 °FPartly cloudy.6 mph86%29.21 "HgN/A
2:20 am27 °FPassing clouds.7 mph86%29.24 "HgN/A
1:50 am28 °FClear.5 mph86%29.24 "HgN/A
1:20 am28 °FClear.5 mph86%29.27 "HgN/A
12:50 am28 °FClear.6 mph86%29.30 "HgN/A
12:20 am28 °FClear.8 mph86%29.33 "HgN/A
11:50 pm
Thu, Dec 12
28 °FClear.5 mph86%29.36 "HgN/A
11:20 pm27 °FClear.2 mph93%29.39 "HgN/A
10:50 pm28 °FClear.5 mph86%29.42 "HgN/A
10:20 pm30 °FClear.7 mph86%29.42 "HgN/A
9:50 pm30 °FClear.8 mph86%29.45 "HgN/A
9:20 pm28 °FClear.7 mph100%29.47 "HgN/A
8:50 pm28 °FClear.6 mph93%29.47 "Hg10 mi
8:20 pm30 °FClear.5 mph93%29.50 "Hg10 mi
7:50 pm28 °FClear.5 mph100%29.53 "Hg10 mi
7:20 pm30 °FClear.6 mph93%29.53 "Hg10 mi
6:50 pm30 °FClear.3 mph93%29.56 "Hg10 mi
6:20 pm30 °FClear.5 mph100%29.56 "Hg10 mi
5:50 pm32 °FClear.5 mph93%29.59 "Hg10 mi
5:20 pm34 °FPassing clouds.7 mph87%29.59 "HgN/A
4:50 pm34 °FPassing clouds.12 mph87%29.59 "HgN/A
4:20 pm36 °FOvercast.13 mph81%29.62 "HgN/A
3:50 pm36 °FLight rain. Broken clouds.10 mph87%29.62 "HgN/A
3:20 pm36 °FLight rain. Partly sunny.10 mph93%29.62 "HgN/A
2:50 pm36 °FLight rain. Partly sunny.12 mph93%29.62 "HgN/A
2:20 pm36 °FLight rain. Partly sunny.12 mph93%29.65 "HgN/A
Weather by CustomWeather, © 2019

See weather overview

Advertising